Location: Kunchanapalle
(16.4623°N, 80.6176°E)
Time: 14:24:42
(UTC+00:00)

Lacrosse 5 rocket - Pass Details

Date: 13 August 2020
Orbit: 464 x 633 km, 57.0° (Epoch: 24 September)

Event Time Altitude Azimuth Distance (km) Brightness Sun altitude
Exits shadow 23:22:01 15° 292° (WNW) 1,651 3.3 -14.4°
Maximum altitude 23:23:03 16° 308° (NW) 1,603 3.4 -14.2°
Drops below altitude 10° 23:25:50 10° 346° (NNW) 1,980 4.2 -13.5°
Sets 23:28:58 0° 8° (N) 2,904 5.4 -12.8°
